Forside
METAR-TAF:

METAR-TAF

Lufthavne :

Lawrence Municipal Airport

Lawrence, Kansas, USA

Breddekreds: 39-00-30N, længdekreds: 095-12-42W, højde: 253 m

Aktuelle vejr

Denne rapport blev lavet for 47 minutter siden, kl. 16:52 UTC
Vind 19 kt fra sydøst
Temperatur -3°C
Fugtighed 74%
Tryk 1019 hPa
Sigt: 16.1 km
skyfri

METAR: KLWC 211652Z AUTO 13019KT 10SM CLR M03/M07 A3010 RMK AO2 PK WND 13027/1635 SLP204 T10331072 $

Tid: 11:39 (17:39 UTC)


TAF: fraværende

Vejrobservationer og prognoser fra mere end 4000 lufthavne (METAR og TAF).

De gule og røde prikker repræsenterer de meteorologiske stationer.

Flyt musen over at se navnet på stationen.

Så klik over at se vejr observationer og prognoser.

At skifte det kort: Klik på de grønne knapper med et sort kors for at zoome ind; på den grønne knap med en bindestreg for at zoome ud; eller på de grønne pile for tilstødende kort.


METAR-TAF: